Time,TemperatureF,DewpointF,PressureIn,WindDirection,WindDirectionDegrees,WindSpeedMPH,WindSpeedGustMPH,Humidity,HourlyPrecipIn,Conditions,Clouds,dailyrainin,SolarRadiationWatts/m^2,SoftwareType,DateUTC
2013-04-14 00:04:00,42.5,38.0,29.31,ENE,62,1.0,8.0,84,0.00,,,0.00,0,Wunderground v.1.15,2013-04-14 05:04:00,
2013-04-14 00:14:00,42.6,38.1,29.31,ENE,62,1.0,8.0,84,0.00,,,0.00,0,Wunderground v.1.15,2013-04-14 05:14:00,
2013-04-14 00:19:00,42.5,38.0,29.31,ENE,62,1.0,1.0,84,0.00,,,0.00,0,Wunderground v.1.15,2013-04-14 05:19:00,
2013-04-14 00:29:00,42.4,37.6,29.31,ENE,62,0.0,8.0,83,0.00,,,0.00,0,Wunderground v.1.15,2013-04-14 05:29:00,
2013-04-14 00:34:00,42.5,37.7,29.31,ENE,62,1.0,8.0,83,0.00,,,0.00,0,Wunderground v.1.15,2013-04-14 05:34:00,
2013-04-14 00:44:00,42.4,37.9,29.31,ENE,62,1.0,8.0,84,0.00,,,0.00,0,Wunderground v.1.15,2013-04-14 05:44:00,
2013-04-14 00:54:00,42.3,37.8,29.31,ENE,62,1.0,8.0,84,0.00,,,0.00,0,Wunderground v.1.15,2013-04-14 05:54:00,
2013-04-14 00:59:00,42.2,37.7,29.31,ENE,62,1.0,8.0,84,0.00,,,0.00,0,Wunderground v.1.15,2013-04-14 05:59:00,
2013-04-14 01:09:00,42.3,37.5,29.31,East,79,2.0,2.0,83,0.00,,,0.00,0,Wunderground v.1.15,2013-04-14 06:09:00,
2013-04-14 01:15:00,42.4,37.3,29.31,East,79,1.0,8.0,82,0.00,,,0.00,0,Wunderground v.1.15,2013-04-14 06:15:00,
2013-04-14 01:20:00,42.5,37.7,29.31,East,79,1.0,1.0,83,0.00,,,0.00,0,Wunderground v.1.15,2013-04-14 06:20:00,
2013-04-14 01:30:00,42.4,37.6,29.31,East,79,1.0,1.0,83,0.00,,,0.00,0,Wunderground v.1.15,2013-04-14 06:30:00,
2013-04-14 01:35:00,42.4,37.9,29.31,East,79,0.0,8.0,84,0.00,,,0.00,0,Wunderground v.1.15,2013-04-14 06:35:00,
2013-04-14 01:45:00,42.3,37.8,29.31,East,79,0.0,8.0,84,0.00,,,0.00,0,Wunderground v.1.15,2013-04-14 06:45:00,
2013-04-14 01:55:00,42.3,38.4,29.31,East,79,1.0,8.0,86,0.00,,,0.00,0,Wunderground v.1.15,2013-04-14 06:55:00,
2013-04-14 02:05:00,42.2,38.3,29.31,East,79,1.0,2.0,86,0.00,,,0.00,0,Wunderground v.1.15,2013-04-14 07:05:00,
2013-04-14 02:14:00,42.2,38.3,29.32,East,79,1.0,8.0,86,0.00,,,0.00,0,Wunderground v.1.15,2013-04-14 07:14:00,
2013-04-14 02:19:00,42.2,38.6,29.32,East,79,1.0,1.0,87,0.00,,,0.00,0,Wunderground v.1.15,2013-04-14 07:19:00,
2013-04-14 02:24:00,42.2,38.6,29.31,East,79,0.0,8.0,87,0.00,,,0.00,0,Wunderground v.1.15,2013-04-14 07:24:00,
2013-04-14 02:34:00,42.1,38.5,29.31,East,79,0.0,8.0,87,0.00,,,0.00,0,Wunderground v.1.15,2013-04-14 07:34:00,
2013-04-14 02:45:00,42.0,38.7,29.31,East,79,2.0,8.0,88,0.00,,,0.00,0,Wunderground v.1.15,2013-04-14 07:45:00,
2013-04-14 02:54:00,42.0,38.7,29.30,East,79,0.0,8.0,88,0.00,,,0.00,0,Wunderground v.1.15,2013-04-14 07:54:00,
2013-04-14 02:59:00,41.9,38.6,29.29,East,79,1.0,8.0,88,0.00,,,0.00,0,Wunderground v.1.15,2013-04-14 07:59:00,
2013-04-14 03:09:00,41.9,38.3,29.29,ESE,109,3.0,3.0,87,0.00,,,0.00,0,Wunderground v.1.15,2013-04-14 08:09:00,
2013-04-14 03:14:00,41.9,38.6,29.29,ESE,109,2.0,8.0,88,0.00,,,0.00,0,Wunderground v.1.15,2013-04-14 08:14:00,
2013-04-14 03:24:00,41.7,38.1,29.29,ESE,108,1.0,8.0,87,0.00,,,0.00,0,Wunderground v.1.15,2013-04-14 08:24:00,
2013-04-14 03:34:00,41.8,38.2,29.30,ESE,108,2.0,8.0,87,0.00,,,0.00,0,Wunderground v.1.15,2013-04-14 08:34:00,
2013-04-14 03:44:00,41.9,38.3,29.30,ESE,108,2.0,8.0,87,0.00,,,0.00,0,Wunderground v.1.15,2013-04-14 08:44:00,
2013-04-14 03:49:00,41.9,38.0,29.30,ESE,108,1.0,8.0,86,0.00,,,0.00,0,Wunderground v.1.15,2013-04-14 08:49:00,
2013-04-14 03:59:00,41.9,38.0,29.30,ESE,105,1.0,1.0,86,0.00,,,0.00,0,Wunderground v.1.15,2013-04-14 08:59:00,
2013-04-14 04:09:00,42.0,37.8,29.30,East,84,2.0,8.0,85,0.00,,,0.00,0,Wunderground v.1.15,2013-04-14 09:09:00,
2013-04-14 04:14:00,42.1,37.9,29.30,East,82,3.0,8.0,85,0.00,,,0.00,0,Wunderground v.1.15,2013-04-14 09:14:00,
2013-04-14 04:24:00,42.1,37.9,29.30,East,82,1.0,8.0,85,0.00,,,0.00,0,Wunderground v.1.15,2013-04-14 09:24:00,
2013-04-14 04:34:00,41.9,38.0,29.30,East,83,1.0,2.0,86,0.00,,,0.00,0,Wunderground v.1.15,2013-04-14 09:34:00,
2013-04-14 04:39:00,41.9,38.0,29.29,East,83,1.0,8.0,86,0.00,,,0.00,0,Wunderground v.1.15,2013-04-14 09:39:00,
2013-04-14 04:49:00,41.8,37.9,29.29,East,87,2.0,8.0,86,0.00,,,0.00,0,Wunderground v.1.15,2013-04-14 09:49:00,
2013-04-14 04:59:00,41.9,38.0,29.29,East,95,3.0,8.0,86,0.00,,,0.00,0,Wunderground v.1.15,2013-04-14 09:59:00,
2013-04-14 05:09:00,41.9,38.0,29.28,East,85,4.0,4.0,86,0.00,,,0.00,0,Wunderground v.1.15,2013-04-14 10:09:00,
2013-04-14 05:14:00,41.8,37.9,29.28,East,87,4.0,8.0,86,0.00,,,0.00,0,Wunderground v.1.15,2013-04-14 10:14:00,
2013-04-14 05:24:00,41.8,37.9,29.27,East,94,4.0,8.0,86,0.00,,,0.00,0,Wunderground v.1.15,2013-04-14 10:24:00,
2013-04-14 05:29:00,41.8,37.9,29.28,East,90,4.0,4.0,86,0.00,,,0.00,0,Wunderground v.1.15,2013-04-14 10:29:00,
2013-04-14 05:39:00,41.9,37.7,29.28,ESE,108,4.0,4.0,85,0.00,,,0.00,0,Wunderground v.1.15,2013-04-14 10:39:00,
2013-04-14 05:48:00,41.9,38.0,29.28,East,86,4.0,4.0,86,0.00,,,0.00,0,Wunderground v.1.15,2013-04-14 10:48:00,
2013-04-14 05:54:00,41.8,37.9,29.27,East,92,4.0,5.0,86,0.00,,,0.00,0,Wunderground v.1.15,2013-04-14 10:54:00,
2013-04-14 06:04:00,41.8,37.9,29.27,East,82,4.0,8.0,86,0.00,,,0.00,0,Wunderground v.1.15,2013-04-14 11:04:00,
2013-04-14 06:10:00,41.9,38.0,29.27,ENE,72,4.0,8.0,86,0.00,,,0.00,0,Wunderground v.1.15,2013-04-14 11:10:00,
2013-04-14 06:15:00,41.9,38.0,29.26,ENE,76,3.0,8.0,86,0.00,,,0.00,0,Wunderground v.1.15,2013-04-14 11:15:00,
2013-04-14 06:25:00,41.8,37.6,29.26,East,80,3.0,8.0,85,0.00,,,0.00,9,Wunderground v.1.15,2013-04-14 11:25:00,
2013-04-14 06:34:00,41.8,37.6,29.25,ENE,76,4.0,8.0,85,0.00,,,0.00,16,Wunderground v.1.15,2013-04-14 11:34:00,
2013-04-14 06:40:00,41.7,37.5,29.25,ENE,70,5.0,5.0,85,0.00,,,0.00,21,Wunderground v.1.15,2013-04-14 11:40:00,
2013-04-14 06:50:00,41.7,37.5,29.25,ENE,78,4.0,8.0,85,0.00,,,0.00,28,Wunderground v.1.15,2013-04-14 11:50:00,
2013-04-14 07:00:00,41.7,37.5,29.25,East,99,6.0,8.0,85,0.00,,,0.00,37,Wunderground v.1.15,2013-04-14 12:00:00,
2013-04-14 07:09:00,41.8,37.6,29.25,NE,45,6.0,8.0,85,0.00,,,0.00,42,Wunderground v.1.15,2013-04-14 12:09:00,
2013-04-14 07:15:00,41.8,37.6,29.24,East,96,6.0,8.0,85,0.00,,,0.00,44,Wunderground v.1.15,2013-04-14 12:15:00,
2013-04-14 07:24:00,41.7,37.5,29.24,East,97,4.0,8.0,85,0.00,,,0.00,47,Wunderground v.1.15,2013-04-14 12:24:00,
2013-04-14 07:29:00,41.9,37.7,29.24,East,84,5.0,8.0,85,0.00,,,0.00,56,Wunderground v.1.15,2013-04-14 12:29:00,
2013-04-14 07:35:00,42.0,37.5,29.24,ESE,107,5.0,8.0,84,0.00,,,0.00,60,Wunderground v.1.15,2013-04-14 12:35:00,
2013-04-14 07:44:00,42.2,38.0,29.24,East,92,5.0,8.0,85,0.00,,,0.00,155,Wunderground v.1.15,2013-04-14 12:44:00,
2013-04-14 07:49:00,42.7,38.2,29.25,ESE,103,5.0,8.0,84,0.00,,,0.00,121,Wunderground v.1.15,2013-04-14 12:49:00,
2013-04-14 07:59:00,42.9,38.4,29.25,East,80,5.0,8.0,84,0.00,,,0.00,111,Wunderground v.1.15,2013-04-14 12:59:00,
2013-04-14 08:09:00,43.1,38.6,29.26,ESE,109,4.0,4.0,84,0.00,,,0.00,135,Wunderground v.1.15,2013-04-14 13:09:00,
2013-04-14 08:14:00,43.4,38.9,29.26,ESE,112,3.0,8.0,84,0.00,,,0.00,125,Wunderground v.1.15,2013-04-14 13:14:00,
2013-04-14 08:24:00,44.0,39.2,29.26,ESE,115,6.0,9.0,83,0.00,,,0.00,158,Wunderground v.1.15,2013-04-14 13:24:00,
2013-04-14 08:34:00,44.4,39.9,29.26,ESE,116,7.0,8.0,84,0.00,,,0.00,86,Wunderground v.1.15,2013-04-14 13:34:00,
2013-04-14 08:44:00,44.6,40.4,29.26,ESE,117,5.0,8.0,85,0.00,,,0.00,174,Wunderground v.1.15,2013-04-14 13:44:00,
2013-04-14 08:49:00,44.9,40.7,29.26,ESE,114,6.0,9.0,85,0.00,,,0.00,181,Wunderground v.1.15,2013-04-14 13:49:00,
2013-04-14 08:59:00,46.1,41.8,29.25,ESE,111,8.0,8.0,85,0.00,,,0.00,281,Wunderground v.1.15,2013-04-14 13:59:00,
2013-04-14 09:09:00,46.0,41.4,29.25,ESE,104,9.0,9.0,84,0.00,,,0.00,142,Wunderground v.1.15,2013-04-14 14:09:00,
2013-04-14 09:14:00,46.0,41.4,29.25,ESE,119,8.0,9.0,84,0.00,,,0.00,172,Wunderground v.1.15,2013-04-14 14:14:00,
2013-04-14 09:24:00,47.4,43.1,29.24,ESE,119,6.0,8.0,85,0.00,,,0.00,185,Wunderground v.1.15,2013-04-14 14:24:00,
2013-04-14 09:29:00,47.5,42.6,29.24,ESE,105,5.0,5.0,83,0.00,,,0.00,272,Wunderground v.1.15,2013-04-14 14:29:00,
2013-04-14 09:44:00,48.9,43.3,29.24,ESE,119,6.0,11.0,81,0.00,,,0.00,327,Wunderground v.1.15,2013-04-14 14:44:00,
2013-04-14 09:54:00,48.9,43.3,29.24,SE,140,8.0,10.0,81,0.00,,,0.00,258,Wunderground v.1.15,2013-04-14 14:54:00,
2013-04-14 10:04:00,49.3,43.4,29.23,SE,125,7.0,8.0,80,0.00,,,0.00,225,Wunderground v.1.15,2013-04-14 15:04:00,
2013-04-14 10:14:00,49.6,43.4,29.23,ESE,110,8.0,9.0,79,0.00,,,0.00,234,Wunderground v.1.15,2013-04-14 15:14:00,
2013-04-14 10:24:00,50.4,44.1,29.22,ESE,119,9.0,10.0,79,0.00,,,0.00,394,Wunderground v.1.15,2013-04-14 15:24:00,
2013-04-14 10:29:00,51.3,45.3,29.22,ESE,109,9.0,9.0,80,0.00,,,0.00,397,Wunderground v.1.15,2013-04-14 15:29:00,
2013-04-14 10:39:00,52.5,45.5,29.22,East,90,10.0,10.0,77,0.00,,,0.00,555,Wunderground v.1.15,2013-04-14 15:39:00,
2013-04-14 10:44:00,52.5,45.8,29.22,SE,125,9.0,10.0,78,0.00,,,0.00,422,Wunderground v.1.15,2013-04-14 15:44:00,
2013-04-14 10:53:00,52.1,45.1,29.22,SE,124,9.0,9.0,77,0.00,,,0.00,469,Wunderground v.1.15,2013-04-14 15:53:00,
2013-04-14 10:59:00,51.8,44.5,29.22,SE,129,10.0,10.0,76,0.00,,,0.00,461,Wunderground v.1.15,2013-04-14 15:59:00,
2013-04-14 11:04:00,51.9,44.9,29.21,ENE,57,10.0,12.0,77,0.00,,,0.00,367,Wunderground v.1.15,2013-04-14 16:04:00,
2013-04-14 11:10:00,51.7,45.1,29.21,SE,134,10.0,10.0,78,0.00,,,0.00,445,Wunderground v.1.15,2013-04-14 16:10:00,
2013-04-14 11:20:00,53.1,46.1,29.20,ESE,106,10.0,10.0,77,0.00,,,0.00,939,Wunderground v.1.15,2013-04-14 16:20:00,
2013-04-14 11:30:00,54.5,47.1,29.20,ESE,116,10.0,11.0,76,0.00,,,0.00,745,Wunderground v.1.15,2013-04-14 16:30:00,
2013-04-14 11:39:00,55.5,48.8,29.19,SSE,157,9.0,12.0,78,0.00,,,0.00,846,Wunderground v.1.15,2013-04-14 16:39:00,
2013-04-14 11:45:00,56.3,49.2,29.18,ESE,109,9.0,12.0,77,0.00,,,0.00,847,Wunderground v.1.15,2013-04-14 16:45:00,
2013-04-14 11:54:00,58.0,50.8,29.18,SE,146,9.0,10.0,77,0.00,,,0.00,847,Wunderground v.1.15,2013-04-14 16:54:00,
2013-04-14 12:00:00,58.1,49.1,29.18,SE,146,9.0,9.0,72,0.00,,,0.00,865,Wunderground v.1.15,2013-04-14 17:00:00,
2013-04-14 12:09:00,57.9,49.3,29.17,SE,130,9.0,9.0,73,0.00,,,0.00,872,Wunderground v.1.15,2013-04-14 17:09:00,
2013-04-14 12:14:00,58.2,50.3,29.17,ESE,117,9.0,9.0,75,0.00,,,0.00,879,Wunderground v.1.15,2013-04-14 17:14:00,
2013-04-14 12:20:00,58.9,51.3,29.16,SE,134,9.0,9.0,76,0.00,,,0.00,881,Wunderground v.1.15,2013-04-14 17:20:00,
2013-04-14 12:29:00,60.4,52.1,29.16,SE,130,9.0,9.0,74,0.00,,,0.00,889,Wunderground v.1.15,2013-04-14 17:29:00,
2013-04-14 12:34:00,60.9,52.6,29.15,SSE,148,9.0,9.0,74,0.00,,,0.00,891,Wunderground v.1.15,2013-04-14 17:34:00,
2013-04-14 12:44:00,62.5,53.7,29.15,ESE,119,8.0,9.0,73,0.00,,,0.00,889,Wunderground v.1.15,2013-04-14 17:44:00,
2013-04-14 12:49:00,63.5,51.9,29.14,SE,138,7.0,14.0,66,0.00,,,0.00,893,Wunderground v.1.15,2013-04-14 17:49:00,
2013-04-14 12:59:00,64.0,52.0,29.14,SSE,150,7.0,8.0,65,0.00,,,0.00,863,Wunderground v.1.15,2013-04-14 17:59:00,
2013-04-14 13:09:00,64.2,51.8,29.13,SSE,157,7.0,7.0,64,0.00,,,0.00,742,Wunderground v.1.15,2013-04-14 18:09:00,
2013-04-14 13:14:00,64.5,52.9,29.13,ESE,119,7.0,9.0,66,0.00,,,0.00,868,Wunderground v.1.15,2013-04-14 18:14:00,
2013-04-14 13:24:00,65.7,53.6,29.12,SE,136,7.0,8.0,65,0.00,,,0.00,900,Wunderground v.1.15,2013-04-14 18:24:00,
2013-04-14 13:34:00,66.2,53.7,29.12,SE,146,9.0,10.0,64,0.00,,,0.00,831,Wunderground v.1.15,2013-04-14 18:34:00,
2013-04-14 13:44:00,66.9,53.0,29.12,SSE,154,8.0,9.0,61,0.00,,,0.00,823,Wunderground v.1.15,2013-04-14 18:44:00,
2013-04-14 13:49:00,67.0,54.0,29.11,South,169,8.0,8.0,63,0.00,,,0.00,868,Wunderground v.1.15,2013-04-14 18:49:00,
2013-04-14 13:54:00,67.5,54.5,29.11,SE,138,8.0,9.0,63,0.00,,,0.00,867,Wunderground v.1.15,2013-04-14 18:54:00,
2013-04-14 14:04:00,68.6,54.6,29.10,SE,146,7.0,11.0,61,0.00,,,0.00,846,Wunderground v.1.15,2013-04-14 19:04:00,
2013-04-14 14:14:00,69.2,55.2,29.10,South,174,7.0,8.0,61,0.00,,,0.00,826,Wunderground v.1.15,2013-04-14 19:14:00,
2013-04-14 14:19:00,70.0,55.9,29.09,South,171,7.0,8.0,61,0.00,,,0.00,817,Wunderground v.1.15,2013-04-14 19:19:00,
2013-04-14 14:29:00,69.9,55.4,29.09,SSE,161,8.0,13.0,60,0.00,,,0.00,802,Wunderground v.1.15,2013-04-14 19:29:00,
2013-04-14 14:39:00,70.2,54.2,29.09,South,186,8.0,8.0,57,0.00,,,0.00,788,Wunderground v.1.15,2013-04-14 19:39:00,
2013-04-14 14:44:00,70.3,54.8,29.08,SSE,158,7.0,8.0,58,0.00,,,0.00,777,Wunderground v.1.15,2013-04-14 19:44:00,
2013-04-14 14:54:00,71.0,55.0,29.08,South,186,7.0,9.0,57,0.00,,,0.00,673,Wunderground v.1.15,2013-04-14 19:54:00,
2013-04-14 14:59:00,71.1,55.1,29.08,SSE,164,7.0,10.0,57,0.00,,,0.00,517,Wunderground v.1.15,2013-04-14 19:59:00,
2013-04-14 15:09:00,71.2,53.7,29.07,WSW,254,8.0,10.0,54,0.00,,,0.00,346,Wunderground v.1.15,2013-04-14 20:09:00,
2013-04-14 15:14:00,71.5,53.5,29.07,South,176,8.0,10.0,53,0.00,,,0.00,378,Wunderground v.1.15,2013-04-14 20:14:00,
2013-04-14 15:24:00,71.8,52.7,29.06,South,184,7.0,8.0,51,0.00,,,0.00,339,Wunderground v.1.15,2013-04-14 20:24:00,
2013-04-14 15:34:00,72.0,52.9,29.05,SE,144,8.0,10.0,51,0.00,,,0.00,281,Wunderground v.1.15,2013-04-14 20:34:00,
2013-04-14 15:44:00,72.4,52.2,29.05,South,186,8.0,12.0,49,0.00,,,0.00,146,Wunderground v.1.15,2013-04-14 20:44:00,
2013-04-14 15:53:00,72.5,52.2,29.05,SSW,208,9.0,9.0,49,0.00,,,0.00,130,Wunderground v.1.15,2013-04-14 20:53:00,
2013-04-14 15:59:00,72.6,52.3,29.05,SSE,163,9.0,14.0,49,0.00,,,0.00,65,Wunderground v.1.15,2013-04-14 20:59:00,
2013-04-14 16:10:00,72.7,51.3,29.04,SSW,192,9.0,9.0,47,0.00,,,0.00,81,Wunderground v.1.15,2013-04-14 21:10:00,
2013-04-14 16:15:00,72.6,52.3,29.04,South,183,9.0,9.0,49,0.00,,,0.00,90,Wunderground v.1.15,2013-04-14 21:15:00,
2013-04-14 16:25:00,72.6,51.8,29.04,SSW,196,8.0,9.0,48,0.00,,,0.00,90,Wunderground v.1.15,2013-04-14 21:25:00,
2013-04-14 16:30:00,72.6,51.2,29.04,SSW,194,9.0,9.0,47,0.00,,,0.00,69,Wunderground v.1.15,2013-04-14 21:30:00,
2013-04-14 16:40:00,72.3,50.9,29.03,South,171,10.0,10.0,47,0.00,,,0.00,74,Wunderground v.1.15,2013-04-14 21:40:00,
2013-04-14 16:50:00,72.4,51.6,29.03,SW,215,10.0,12.0,48,0.00,,,0.00,230,Wunderground v.1.15,2013-04-14 21:50:00,
2013-04-14 17:00:00,72.2,51.4,29.03,South,171,10.0,10.0,48,0.00,,,0.00,220,Wunderground v.1.15,2013-04-14 22:00:00,
2013-04-14 17:09:00,71.9,51.7,29.03,SSE,149,9.0,9.0,49,0.00,,,0.00,62,Wunderground v.1.15,2013-04-14 22:09:00,
2013-04-14 17:14:00,71.8,51.6,29.03,South,184,8.0,9.0,49,0.00,,,0.00,195,Wunderground v.1.15,2013-04-14 22:14:00,
2013-04-14 17:25:00,71.5,51.9,29.03,SSW,196,9.0,9.0,50,0.00,,,0.00,72,Wunderground v.1.15,2013-04-14 22:25:00,
2013-04-14 17:30:00,71.4,51.8,29.03,SSE,165,8.0,8.0,50,0.00,,,0.00,139,Wunderground v.1.15,2013-04-14 22:30:00,
2013-04-14 17:40:00,71.0,51.4,29.03,South,173,8.0,8.0,50,0.00,,,0.00,98,Wunderground v.1.15,2013-04-14 22:40:00,
2013-04-14 17:49:00,70.4,50.9,29.02,SSE,157,8.0,8.0,50,0.00,,,0.00,65,Wunderground v.1.15,2013-04-14 22:49:00,
2013-04-14 17:54:00,70.1,50.6,29.02,SE,146,8.0,8.0,50,0.00,,,0.00,81,Wunderground v.1.15,2013-04-14 22:54:00,
2013-04-14 18:04:00,69.8,50.9,29.02,SSE,152,7.0,8.0,51,0.00,,,0.00,142,Wunderground v.1.15,2013-04-14 23:04:00,
2013-04-14 18:14:00,70.0,51.0,29.02,SSE,164,6.0,10.0,51,0.00,,,0.00,121,Wunderground v.1.15,2013-04-14 23:14:00,
2013-04-14 18:24:00,69.6,51.2,29.02,South,171,6.0,9.0,52,0.00,,,0.00,91,Wunderground v.1.15,2013-04-14 23:24:00,
2013-04-14 18:29:00,69.3,50.9,29.02,South,184,6.0,8.0,52,0.00,,,0.00,79,Wunderground v.1.15,2013-04-14 23:29:00,
2013-04-14 18:39:00,68.6,51.8,29.02,SSE,157,5.0,8.0,55,0.00,,,0.00,62,Wunderground v.1.15,2013-04-14 23:39:00,
2013-04-14 18:49:00,67.8,51.0,29.01,SSE,155,5.0,5.0,55,0.00,,,0.00,35,Wunderground v.1.15,2013-04-14 23:49:00,
2013-04-14 18:59:00,66.9,50.7,29.01,SSE,153,6.0,8.0,56,0.00,,,0.00,25,Wunderground v.1.15,2013-04-14 23:59:00,
2013-04-14 19:09:00,66.4,50.7,29.01,SE,141,5.0,9.0,57,0.00,,,0.00,16,Wunderground v.1.15,2013-04-15 00:09:00,
2013-04-14 19:14:00,66.2,50.0,29.01,South,179,5.0,9.0,56,0.00,,,0.00,12,Wunderground v.1.15,2013-04-15 00:14:00,
2013-04-14 19:24:00,66.0,49.8,29.01,SSE,164,5.0,8.0,56,0.00,,,0.00,5,Wunderground v.1.15,2013-04-15 00:24:00,
2013-04-14 19:29:00,65.7,50.0,29.01,SSE,147,6.0,8.0,57,0.00,,,0.00,0,Wunderground v.1.15,2013-04-15 00:29:00,
2013-04-14 19:39:00,64.8,50.1,29.01,SE,142,5.0,5.0,59,0.00,,,0.00,0,Wunderground v.1.15,2013-04-15 00:39:00,
2013-04-14 19:44:00,64.1,49.9,29.01,SSE,154,5.0,8.0,60,0.00,,,0.00,0,Wunderground v.1.15,2013-04-15 00:44:00,
2013-04-14 19:54:00,63.2,50.0,29.01,SE,144,6.0,7.0,62,0.00,,,0.00,0,Wunderground v.1.15,2013-04-15 00:54:00,
2013-04-14 19:59:00,62.8,50.0,29.01,SSE,148,6.0,8.0,63,0.00,,,0.00,0,Wunderground v.1.15,2013-04-15 00:59:00,
2013-04-14 20:09:00,62.4,50.1,29.01,SSE,148,5.0,8.0,64,0.00,,,0.00,0,Wunderground v.1.15,2013-04-15 01:09:00,
2013-04-14 20:14:00,62.2,49.9,29.02,SE,132,5.0,8.0,64,0.00,,,0.00,0,Wunderground v.1.15,2013-04-15 01:14:00,
2013-04-14 20:19:00,62.3,50.0,29.01,SE,144,5.0,8.0,64,0.00,,,0.00,0,Wunderground v.1.15,2013-04-15 01:19:00,
2013-04-14 20:29:00,62.3,50.0,29.02,SSE,148,5.0,5.0,64,0.00,,,0.00,0,Wunderground v.1.15,2013-04-15 01:29:00,
2013-04-14 20:34:00,62.3,50.0,29.02,SSE,168,6.0,6.0,64,0.00,,,0.00,0,Wunderground v.1.15,2013-04-15 01:34:00,
2013-04-14 20:44:00,62.0,50.1,29.02,SSE,150,5.0,8.0,65,0.00,,,0.00,0,Wunderground v.1.15,2013-04-15 01:44:00,
2013-04-14 20:54:00,62.1,50.2,29.02,SSE,166,6.0,8.0,65,0.00,,,0.00,0,Wunderground v.1.15,2013-04-15 01:54:00,
2013-04-14 20:59:00,62.1,49.8,29.02,South,181,6.0,8.0,64,0.00,,,0.00,0,Wunderground v.1.15,2013-04-15 01:59:00,
2013-04-14 21:05:00,62.2,49.9,29.02,SSE,166,6.0,8.0,64,0.00,,,0.00,0,Wunderground v.1.15,2013-04-15 02:05:00,
2013-04-14 21:15:00,62.3,50.0,29.02,South,175,7.0,8.0,64,0.00,,,0.00,0,Wunderground v.1.15,2013-04-15 02:15:00,
2013-04-14 21:20:00,62.2,49.9,29.02,SE,142,6.0,8.0,64,0.00,,,0.00,0,Wunderground v.1.15,2013-04-15 02:20:00,
2013-04-14 21:30:00,61.7,50.2,29.02,South,184,6.0,8.0,66,0.00,,,0.00,0,Wunderground v.1.15,2013-04-15 02:30:00,
2013-04-14 21:45:00,61.7,49.8,29.02,SSW,204,7.0,8.0,65,0.00,,,0.00,0,Wunderground v.1.15,2013-04-15 02:45:00,
2013-04-14 21:54:00,61.6,50.1,29.02,South,175,7.0,8.0,66,0.00,,,0.00,0,Wunderground v.1.15,2013-04-15 02:54:00,
2013-04-14 22:00:00,61.5,50.0,29.03,South,180,7.0,7.0,66,0.00,,,0.00,0,Wunderground v.1.15,2013-04-15 03:00:00,
2013-04-14 22:09:00,61.4,49.9,29.02,SSW,193,7.0,7.0,66,0.00,,,0.00,0,Wunderground v.1.15,2013-04-15 03:09:00,
2013-04-14 22:14:00,61.4,49.9,29.03,South,186,7.0,8.0,66,0.00,,,0.00,0,Wunderground v.1.15,2013-04-15 03:14:00,
2013-04-14 22:24:00,61.6,50.1,29.03,South,190,7.0,9.0,66,0.00,,,0.00,0,Wunderground v.1.15,2013-04-15 03:24:00,
2013-04-14 22:34:00,61.8,49.9,29.03,SSW,213,8.0,9.0,65,0.00,,,0.00,0,Wunderground v.1.15,2013-04-15 03:34:00,
2013-04-14 22:44:00,61.5,50.0,29.04,South,188,8.0,11.0,66,0.00,,,0.00,0,Wunderground v.1.15,2013-04-15 03:44:00,
2013-04-14 22:49:00,61.3,49.8,29.04,SSW,205,8.0,8.0,66,0.00,,,0.00,0,Wunderground v.1.15,2013-04-15 03:49:00,
2013-04-14 22:59:00,61.1,50.1,29.04,SSW,192,7.0,8.0,67,0.00,,,0.00,0,Wunderground v.1.15,2013-04-15 03:59:00,
2013-04-14 23:04:00,61.1,50.1,29.05,SSE,166,8.0,8.0,67,0.00,,,0.00,0,Wunderground v.1.15,2013-04-15 04:04:00,
2013-04-14 23:09:00,61.4,49.9,29.05,South,188,9.0,9.0,66,0.00,,,0.00,0,Wunderground v.1.15,2013-04-15 04:09:00,
2013-04-14 23:14:00,61.6,50.1,29.05,South,187,9.0,9.0,66,0.00,,,0.00,0,Wunderground v.1.15,2013-04-15 04:14:00,
2013-04-14 23:19:00,61.4,50.3,29.05,South,173,8.0,8.0,67,0.00,,,0.00,0,Wunderground v.1.15,2013-04-15 04:19:00,
2013-04-14 23:29:00,60.8,50.2,29.05,SSW,206,7.0,8.0,68,0.00,,,0.00,0,Wunderground v.1.15,2013-04-15 04:29:00,
2013-04-14 23:34:00,60.6,50.4,29.05,South,180,7.0,8.0,69,0.00,,,0.00,0,Wunderground v.1.15,2013-04-15 04:34:00,
2013-04-14 23:39:00,60.5,50.3,29.05,SSW,192,8.0,8.0,69,0.00,,,0.00,0,Wunderground v.1.15,2013-04-15 04:39:00,
2013-04-14 23:49:00,60.3,50.1,29.04,SSW,198,8.0,11.0,69,0.00,,,0.00,0,Wunderground v.1.15,2013-04-15 04:49:00,
2013-04-14 23:59:00,60.4,50.2,29.04,South,183,10.0,14.0,69,0.00,,,0.00,0,Wunderground v.1.15,2013-04-15 04:59:00,